Content
SEND FEEDBACK

Daily
Averages
Monthly
Summary
United States of America

WILMINGTON, NORTH CAROLINA


Home > North America > United States > North Carolina
Elevation: 21 meters     Latitude: 34 16N     Longitude: 077 54W

WEATHER
 
SELECT A DAY
Number of Records: 208,938;   Date Range: 1/1/95 - 8/12/14
 
SHARE

PRINT THIS DATA

[ ← Previous Day ]
WEATHER ALMANAC - 29 JANUARY, 2013
[ Next Day → ]
[ °F ]   °C
Weather ElementAverageHighLow
Temperature14.1 °C24.4 °C (1:53 pm)9 °C (5:25 am)
Dewpoint11.5 °C15 °C (7:53 pm)8 °C (7:23 am)
Humidity86.7 %100 % (1:26 am)50 % (1:53 pm)
Barometer1023.4 hPa1025.1 hPa (12:37 am)1020.7 hPa (1:53 pm)
Wind Speed8 km/h22.2 km/h (12:53 pm)
Weather ElementAverage
Visibility7.7 km
Wind DirectionSSW (199 °)

Weather ElementTotal
Precipitation---
Heating Degree Days1.7 (Base 18.3)
Growing Degree Days6.7 (Base 10)
Averaged from 39 records on 29 January, 2013
WEATHER CONDITIONS BREAKOUT
WIND DIRECTION BREAKOUT
WEATHER BY HOUR - 29 JANUARY, 2013
[ °F ]   °C
Local TimeTemperatureDewpointHumidityBarometerVisibilityWind DirectionWind SpeedGust SpeedPrecipitationEventsConditions
12:37 AM12 °C11 °C94 %1025.1 hPa0.3 kmSW (230°)5.6 km/hFogFog
12:53 AM11.7 °C11.1 °C96 %1025.1 hPa0.3 kmSW (230°)5.6 km/hFogFog
1:26 AM12 °C12 °C100 %1025.1 hPa0.3 kmWSW (250°)7.4 km/hFogFog
1:53 AM11.7 °C11.7 °C100 %1024.7 hPa0.3 kmWSW (240°)7.4 km/hFogFog
2:53 AM11.7 °C11.1 °C96 %1024.4 hPa0.3 kmWSW (250°)5.6 km/hFogFog
3:22 AM11 °C11 °C100 %1024.4 hPa0.3 kmWSW (240°)7.4 km/hFogFog
3:32 AM11 °C10 °C94 %1024.4 hPa0.3 kmWSW (250°)7.4 km/hFogFog
3:39 AM11 °C10 °C94 %1024.4 hPa0.8 kmWest (270°)5.6 km/hFogFog
3:53 AM10.6 °C10 °C96 %1024.4 hPa0.8 kmCalmFogFog
4:00 AM11 °C10 °C94 %1024 hPa0.3 kmSW (230°)5.6 km/hFogFog
4:15 AM10 °C9 °C94 %1024 hPa0.3 kmCalmFogFog
4:49 AM10 °C9 °C94 %1024 hPa1.3 kmWSW (240°)5.6 km/hMist
4:53 AM10 °C9.4 °C96 %1024 hPa1.3 kmWSW (240°)5.6 km/hMist
5:25 AM9 °C9 °C100 %1024 hPa1.9 kmWSW (240°)7.4 km/hPartly Cloudy
5:28 AM9 °C9 °C100 %1024 hPa3.2 kmWest (260°)5.6 km/hPartly Cloudy
5:43 AM10 °C9 °C94 %1024 hPa4.8 kmCalmPartly Cloudy
5:53 AM10 °C8.9 °C93 %1024.4 hPa4.8 kmCalmClear
6:15 AM10 °C9 °C94 %1024.4 hPa4 kmCalmClear
6:27 AM9 °C9 °C100 %1024.4 hPa6.4 kmWest (270°)5.6 km/hClear
6:53 AM9.4 °C8.9 °C97 %1024.4 hPa4 kmCalmClear
7:23 AM9 °C8 °C93 %1024.4 hPa6.4 kmSW (230°)5.6 km/hClear
7:53 AM10 °C9.4 °C96 %1024.4 hPa6.4 kmWSW (240°)9.3 km/hClear
8:43 AM12 °C10 °C88 %1024.4 hPa9.7 kmWest (260°)7.4 km/hScattered Clouds
8:53 AM12.8 °C10.6 °C86 %1024.4 hPa9.7 kmWest (270°)5.6 km/hPartly Cloudy
9:53 AM16.1 °C12.8 °C81 %1024.7 hPa16.1 kmWest (260°)13 km/hClear
10:53 AM19.4 °C13.9 °C70 %1024.4 hPa16.1 kmWest (260°)13 km/hClear
11:53 AM22.2 °C14.4 °C61 %1023.4 hPa16.1 kmWest (260°)16.7 km/hClear
12:53 PM23.9 °C14.4 °C55 %1022 hPa16.1 kmWest (270°)22.2 km/hClear
1:53 PM24.4 °C13.3 °C50 %1020.7 hPa16.1 kmSW (230°)18.5 km/hClear
2:53 PM23.9 °C12.8 °C50 %1020.7 hPa16.1 kmWest (260°)14.8 km/hPartly Cloudy
3:53 PM23.3 °C14.4 °C57 %1021 hPa16.1 kmSSW (210°)16.7 km/hPartly Cloudy
4:53 PM21.7 °C14.4 °C63 %1021 hPa16.1 kmSSW (210°)13 km/hClear
5:53 PM18.9 °C14.4 °C75 %1020.7 hPa16.1 kmSouth (190°)9.3 km/hClear
6:53 PM18.3 °C14.4 °C78 %1021 hPa16.1 kmSSW (200°)13 km/hClear
7:53 PM17.2 °C15 °C87 %1021 hPa16.1 kmSSW (200°)11.1 km/hClear
8:53 PM16.7 °C15 °C90 %1021.3 hPa16.1 kmSSW (200°)9.3 km/hClear
9:53 PM16.7 °C15 °C90 %1021.3 hPa16.1 kmSSW (200°)11.1 km/hClear
10:53 PM16.1 °C15 °C93 %1021 hPa12.9 kmSouth (180°)9.3 km/hClear
11:53 PM15.6 °C14.4 °C93 %1021 hPa9.7 kmSouth (190°)7.4 km/hClear
Hourly data recorded from KILM, located 0 kilometers away from Wilmington, North Carolina







STORIES FROM OUR PARTNERS